Ludington, MI

11:37 AM EST on November 21, 2019 (GMT -0500)
Mason County

Weather History for KLDM - June, 2019

Change the Weather History Date:

Wednesday, June 12, 2019

  Actual Average Record
Temperature  
Mean Temperature 59 °F -  
Max Temperature 63 °F 75 °F 90 °F (1956)
Min Temperature 54 °F 53 °F 38 °F (1979)
Degree Days  
Heating Degree Days 6    
Growing Degree Days 9 (Base 50)    
Moisture  
Dew Point 55 °F    
Average Humidity 87    
Maximum Humidity 98    
Minimum Humidity 71    
Precipitation  
Precipitation 0.32 in - - ()
Sea Level Pressure  
Sea Level Pressure 29.92 in    
Wind  
Wind Speed 2 mph (East)    
Max Wind Speed 8 mph    
Max Gust Speed -    
Visibility 9 miles    
Events Rain    
Averages and records for this station are not official NWS values.
T = Trace of Precipitation, MM = Missing Value Source: NWS Daily Summary

Daily Weather History Graph

Daily Weather History Graph

Search for Another Location

Airport or City:

Astronomy

Jun. 12, 2019 Rise Set
Actual Time 6:02 AM EDT 9:28 PM EDT
Civil Twilight 5:26 AM EDT 10:04 PM EDT
Nautical Twilight 4:39 AM EDT 10:52 PM EDT
Astronomical Twilight 3:39 AM EDT 11:52 PM EDT
Moon 4:24 PM EDT (6/12) 3:29 AM EDT (6/12)
Length of Visible Light 16h 38m
Length of Day
15h 26m
Waxing Gibbous, 76% of the Moon is Illuminated
Jun 12
Waxing Gibbous
Jun 17
Full
Jun 25
Last Quarter
Jul 2
New
Jul 9
First Quarter

Hourly Weather History & Observations

Time (EDT) Temp. Dew Point Humidity Pressure Visibility Wind Dir Wind Speed Gust Speed Precip Events Conditions
12:18 AM 59.0 °F 51.8 °F 77% 30.03 in 10.0 mi Calm Calm - N/A   Overcast
12:36 AM 58.8 °F 52.0 °F 78% 30.02 in 10.0 mi Calm Calm - N/A   Overcast
12:55 AM 60.1 °F 51.3 °F 73% 30.02 in 10.0 mi Calm Calm - N/A   Overcast
12:56 AM 60.1 °F 51.1 °F 72% 30.02 in 10.0 mi Calm Calm - N/A   Overcast
1:15 AM 60.4 °F 50.9 °F 71% 30.02 in 10.0 mi Calm Calm - N/A   Overcast
1:16 AM 60.4 °F 50.9 °F 71% 30.02 in 10.0 mi Calm Calm - N/A   Overcast
1:39 AM 59.9 °F 51.8 °F 75% 30.01 in 10.0 mi Calm Calm - N/A   Overcast
1:57 AM 58.1 °F 52.7 °F 82% 30.02 in 10.0 mi Calm Calm - N/A Rain Light Rain
2:15 AM 56.5 °F 54.3 °F 92% 30.01 in 10.0 mi East 3.5 mph - N/A Rain Light Rain
2:35 AM 57.9 °F 53.2 °F 84% 30.01 in 10.0 mi Calm Calm - N/A Rain Rain
2:36 AM 57.9 °F 53.1 °F 84% 30.01 in 10.0 mi Calm Calm - N/A Rain Rain
3:00 AM 56.3 °F 54.5 °F 94% 29.99 in 10.0 mi East 4.6 mph - N/A Rain Light Rain
3:18 AM 57.2 °F 53.8 °F 88% 29.99 in 10.0 mi Calm Calm - N/A Rain Rain
3:36 AM 56.5 °F 54.0 °F 91% 30.01 in 10.0 mi North 6.9 mph - 0.01 in Rain Rain
3:55 AM 56.3 °F 53.6 °F 91% 29.99 in 10.0 mi Calm Calm - 0.01 in Rain Light Rain
4:15 AM 56.1 °F 53.6 °F 91% 29.99 in 10.0 mi Calm Calm - N/A Rain Light Rain
4:16 AM 56.1 °F 53.6 °F 91% 29.99 in 10.0 mi Calm Calm - N/A Rain Light Rain
4:38 AM 55.9 °F 53.6 °F 92% 29.97 in 10.0 mi East 3.5 mph - 0.01 in   Overcast
4:57 AM 55.6 °F 53.6 °F 93% 29.96 in 10.0 mi Calm Calm - 0.01 in   Overcast
5:15 AM 55.9 °F 53.2 °F 91% 29.96 in 10.0 mi Calm Calm - N/A Rain Light Rain
5:16 AM 55.9 °F 53.2 °F 91% 29.96 in 10.0 mi Calm Calm - N/A Rain Light Rain
5:35 AM 55.4 °F 54.0 °F 95% 29.95 in 10.0 mi Calm Calm - N/A Rain Light Rain
5:36 AM 55.4 °F 54.0 °F 95% 29.95 in 10.0 mi Calm Calm - N/A Rain Light Rain
5:55 AM 55.4 °F 53.6 °F 94% 29.96 in 10.0 mi Calm Calm - N/A   Overcast
5:59 AM 55.8 °F 53.6 °F 92% 29.96 in 10.0 mi Calm Calm - N/A Rain Rain
6:17 AM 56.1 °F 54.5 °F 94% 29.96 in 10.0 mi ESE 3.5 mph - N/A   Light Drizzle
6:35 AM 56.8 °F 53.8 °F 89% 29.95 in 10.0 mi SE 4.6 mph - N/A   Overcast
6:55 AM 57.4 °F 52.0 °F 82% 29.95 in 10.0 mi SE 3.5 mph - N/A   Overcast
6:56 AM 57.4 °F 52.0 °F 82% 29.95 in 10.0 mi SSE 4.6 mph - N/A   Overcast
7:15 AM 57.2 °F 51.1 °F 80% 29.95 in 10.0 mi South 4.6 mph - N/A Rain Light Rain
7:20 AM 57.6 °F 50.5 °F 77% 29.96 in 10.0 mi SSW 5.8 mph - N/A Rain Light Rain
7:38 AM 57.7 °F 49.6 °F 74% 29.96 in 10.0 mi WSW 6.9 mph - N/A   Overcast
7:56 AM 57.7 °F 49.8 °F 75% 29.96 in 10.0 mi West 5.8 mph - N/A   Light Drizzle
8:15 AM 56.7 °F 50.0 °F 78% 29.95 in 10.0 mi Calm Calm - N/A   Clear
8:35 AM 56.7 °F 50.4 °F 79% 29.95 in 10.0 mi Calm Calm - N/A   Mostly Cloudy
8:59 AM 58.1 °F 50.9 °F 77% 29.95 in 10.0 mi Calm Calm - N/A   Mostly Cloudy
9:17 AM 58.5 °F 50.4 °F 74% 29.96 in 10.0 mi Calm Calm - N/A   Mostly Cloudy
9:35 AM 58.5 °F 50.7 °F 75% 29.97 in 10.0 mi Calm Calm - N/A   Light Drizzle
9:55 AM 59.5 °F 51.6 °F 75% 29.96 in 10.0 mi Calm Calm - N/A Rain Light Rain
10:15 AM 59.0 °F 53.4 °F 82% 29.96 in 10.0 mi Calm Calm - 0.01 in Rain Light Rain
10:20 AM 59.0 °F 53.8 °F 83% 29.97 in 10.0 mi Calm Calm - 0.01 in Rain Light Rain
10:38 AM 58.3 °F 54.9 °F 88% 29.95 in 5.0 mi Calm Calm - 0.02 in Rain Rain
10:56 AM 58.3 °F 55.9 °F 92% 29.93 in 7.0 mi East 8.1 mph - 0.03 in Rain Light Rain
11:15 AM 57.9 °F 55.8 °F 92% 29.91 in 10.0 mi East 8.1 mph - 0.01 in Rain Light Rain
11:35 AM 57.7 °F 55.8 °F 93% 29.92 in 7.0 mi ESE 4.6 mph - 0.04 in Rain Light Rain
11:59 AM 58.6 °F 56.5 °F 93% 29.92 in 10.0 mi SSE 4.6 mph - 0.06 in Rain Light Rain
12:17 PM 59.9 °F 56.7 °F 89% 29.92 in 10.0 mi ESE 4.6 mph - N/A   Overcast
12:35 PM 61.7 °F 56.8 °F 84% 29.91 in 10.0 mi ESE 3.5 mph - N/A   Overcast
12:36 PM 61.7 °F 56.8 °F 84% 29.91 in 10.0 mi East 4.6 mph - N/A   Overcast
12:55 PM 62.6 °F 56.1 °F 79% 29.90 in 10.0 mi ESE 6.9 mph - N/A   Mostly Cloudy
1:15 PM 63.1 °F 56.7 °F 79% 29.90 in 10.0 mi ESE 5.8 mph - N/A Rain Light Rain
1:38 PM 63.7 °F 55.9 °F 76% 29.89 in 10.0 mi SE 5.8 mph - N/A Rain Light Rain
1:56 PM 63.5 °F 56.7 °F 78% 29.89 in 10.0 mi ESE 5.8 mph - N/A   Overcast
2:15 PM 63.1 °F 56.1 °F 78% 29.89 in 10.0 mi Calm Calm - N/A Rain Light Rain
2:35 PM 61.2 °F 56.7 °F 85% 29.90 in 10.0 mi SE 3.5 mph - N/A Rain Rain
2:59 PM 61.0 °F 56.5 °F 85% 29.90 in 4.0 mi WSW 3.5 mph - 0.03 in Rain Rain
3:17 PM 60.4 °F 58.1 °F 92% 29.89 in 5.0 mi North 3.5 mph - 0.02 in Rain Rain
3:35 PM 60.3 °F 58.3 °F 93% 29.88 in 7.0 mi Calm Calm - 0.03 in Rain Light Rain
3:55 PM 60.8 °F 57.2 °F 88% 29.87 in 10.0 mi Calm Calm - 0.04 in Rain Rain
4:15 PM 60.8 °F 56.1 °F 85% 29.88 in 10.0 mi Calm Calm - N/A Rain Light Rain
4:38 PM 60.6 °F 57.6 °F 90% 29.88 in 3.0 mi Calm Calm - 0.02 in Rain Rain
4:56 PM 60.3 °F 57.7 °F 91% 29.87 in 7.0 mi Calm Calm - 0.03 in Rain Rain
5:15 PM 60.8 °F 57.2 °F 88% 29.86 in 10.0 mi Calm Calm - 0.01 in Rain Light Rain
5:35 PM 60.6 °F 57.7 °F 90% 29.85 in 10.0 mi Calm Calm - 0.01 in Rain Light Rain
5:59 PM 60.6 °F 58.3 °F 92% 29.84 in 7.0 mi Calm Calm - 0.01 in Rain Light Rain
6:17 PM 60.3 °F 59.0 °F 96% 29.83 in 5.0 mi NNW 5.8 mph - N/A Rain Light Rain
6:35 PM 60.3 °F 58.1 °F 93% 29.84 in 7.0 mi Calm Calm - 0.01 in Rain Light Rain
6:55 PM 60.4 °F 58.6 °F 94% 29.84 in 5.0 mi Calm Calm - 0.02 in Rain Light Rain
7:15 PM 59.9 °F 57.4 °F 91% 29.84 in 7.0 mi Calm Calm - 0.01 in   Drizzle
7:38 PM 59.5 °F 57.4 °F 93% 29.83 in 7.0 mi NE 3.5 mph - 0.01 in Rain Rain
7:55 PM 59.4 °F 57.6 °F 94% 29.84 in 10.0 mi Calm Calm - 0.01 in   Overcast
8:15 PM 59.0 °F 57.7 °F 96% 29.83 in 5.0 mi Calm Calm - 0.01 in Rain Rain
8:35 PM 59.0 °F 58.1 °F 97% 29.83 in 4.0 mi Calm Calm - 0.01 in Rain Rain
8:40 PM 59.0 °F 58.1 °F 97% 29.83 in 3.0 mi Calm Calm - 0.01 in Rain Light Rain
8:58 PM 59.0 °F 58.1 °F 97% 29.84 in 2.5 mi East 4.6 mph - 0.02 in Rain Rain
9:16 PM 58.6 °F 58.1 °F 98% 29.81 in 4.0 mi North 8.1 mph - N/A Rain Rain
9:35 PM 58.1 °F 56.7 °F 95% 29.81 in 10.0 mi NE 3.5 mph - 0.01 in Rain Rain
9:55 PM 57.6 °F 55.9 °F 94% 29.82 in 10.0 mi Calm Calm - 0.01 in   Overcast
10:19 PM 57.2 °F 55.8 °F 95% 29.81 in 10.0 mi NE 3.5 mph - N/A Rain Rain
10:37 PM 57.2 °F 55.8 °F 95% 29.81 in 10.0 mi Calm Calm - N/A   Drizzle
10:55 PM 57.2 °F 55.8 °F 95% 29.81 in 5.0 mi NNE 3.5 mph - 0.03 in Rain Rain
11:15 PM 55.9 °F 55.0 °F 97% 29.80 in 7.0 mi NE 4.6 mph - N/A Rain Light Rain
11:35 PM 55.4 °F 54.1 °F 96% 29.82 in 10.0 mi Calm Calm - 0.01 in   Light Drizzle
11:40 PM 55.4 °F 54.1 °F 96% 29.82 in 10.0 mi Calm Calm - 0.01 in   Light Drizzle
11:58 PM 54.7 °F 53.8 °F 97% 29.81 in 7.0 mi North 3.5 mph - 0.01 in Rain Rain